�������l�o���
Date,Time,MP-1(��Sv/h),MP-2(��Sv/h),MP-3(��Sv/h),MP-4(��Sv/h),MP-5(��Sv/h),MP-6(��Sv/h),MP-7(��Sv/h),MP-8(��Sv/h),����,����(m/s),���J
2020/01/01,00:00,0.696,1.002,0.676,1.265,0.882,0.401,0.706,0.672,�k��,2.6,��
2020/01/01,00:10,0.699,1.004,0.675,1.269,0.882,0.401,0.707,0.672,��,2.4,��
2020/01/01,00:20,0.698,1.004,0.676,1.265,0.883,0.401,0.706,0.671,�k��,5.2,��
2020/01/01,00:30,0.695,1.004,0.676,1.266,0.882,0.402,0.708,0.673,��,5.5,��
2020/01/01,00:40,0.695,1.004,0.678,1.268,0.884,0.402,0.708,0.673,���k��,7.1,��
2020/01/01,00:50,0.699,1.003,0.677,1.267,0.884,0.402,0.706,0.672,��,6.9,��
2020/01/01,01:00,0.696,1.003,0.677,1.266,0.882,0.401,0.708,0.673,���k��,8.2,��
2020/01/01,01:10,0.695,1.003,0.677,1.267,0.883,0.401,0.707,0.671,���k��,6.6,��
2020/01/01,01:20,0.697,1.006,0.676,1.268,0.883,0.401,0.708,0.671,��,6.9,��
2020/01/01,01:30,0.697,1.004,0.677,1.267,0.883,0.402,0.710,0.672,��,5.2,��
2020/01/01,01:40,0.697,1.002,0.678,1.268,0.884,0.400,0.707,0.673,���k��,5.3,��
2020/01/01,01:50,0.696,1.004,0.679,1.265,0.883,0.401,0.708,0.673,��,3.0,��
2020/01/01,02:00,0.694,1.002,0.677,1.269,0.882,0.403,0.707,0.671,���k��,3.6,��
2020/01/01,02:10,0.695,1.002,0.676,1.267,0.883,0.402,0.708,0.671,���k��,2.9,��
2020/01/01,02:20,0.696,1.004,0.678,1.265,0.882,0.400,0.709,0.675,�k��,2.5,��
2020/01/01,02:30,0.695,1.003,0.678,1.266,0.881,0.401,0.708,0.673,�k�k��,2.0,��
2020/01/01,02:40,0.696,1.002,0.675,1.268,0.882,0.403,0.707,0.674,�k�k��,2.7,��
2020/01/01,02:50,0.696,1.004,0.677,1.268,0.882,0.401,0.706,0.673,�k�k��,2.9,��
2020/01/01,03:00,0.698,1.003,0.677,1.267,0.884,0.402,0.707,0.672,�k�k��,2.2,��
2020/01/01,03:10,0.697,1.002,0.676,1.269,0.882,0.401,0.709,0.673,�k�k��,1.6,��
2020/01/01,03:20,0.693,1.002,0.676,1.266,0.883,0.401,0.706,0.672,�k�k��,1.1,��
2020/01/01,03:30,0.694,1.003,0.677,1.266,0.884,0.402,0.707,0.672,�k��,1.2,��
2020/01/01,03:40,0.694,1.003,0.676,1.266,0.882,0.404,0.707,0.672,���쐼,0.9,��
2020/01/01,03:50,0.696,1.003,0.677,1.265,0.881,0.402,0.708,0.672,���k��,1.0,��
2020/01/01,04:00,0.695,1.002,0.677,1.267,0.882,0.402,0.707,0.673,�k�k��,0.9,��
2020/01/01,04:10,0.696,1.002,0.678,1.266,0.881,0.402,0.707,0.672,�k,1.4,��
2020/01/01,04:20,0.695,1.001,0.676,1.268,0.882,0.401,0.706,0.672,�k,2.4,��
2020/01/01,04:30,0.694,1.001,0.675,1.265,0.881,0.401,0.706,0.673,�k�k��,2.1,��
2020/01/01,04:40,0.695,1.002,0.677,1.265,0.882,0.401,0.706,0.673,�k�k��,2.4,��
2020/01/01,04:50,0.696,1.002,0.675,1.266,0.884,0.401,0.705,0.672,�k,2.6,��
2020/01/01,05:00,0.694,1.001,0.676,1.265,0.881,0.401,0.706,0.671,�k�k��,2.5,��
2020/01/01,05:10,0.696,1.003,0.675,1.268,0.882,0.400,0.708,0.672,�k�k��,2.8,��
2020/01/01,05:20,0.695,1.001,0.675,1.268,0.882,0.402,0.708,0.671,�k,2.2,��
2020/01/01,05:30,0.693,1.002,0.675,1.266,0.882,0.402,0.706,0.672,�k,3.1,��
2020/01/01,05:40,0.694,1.001,0.675,1.266,0.879,0.401,0.706,0.671,�k,3.9,��
2020/01/01,05:50,0.694,0.998,0.673,1.265,0.882,0.400,0.705,0.671,�k�k��,4.1,��
2020/01/01,06:00,0.695,1.000,0.675,1.265,0.882,0.401,0.705,0.672,�k�k��,3.8,��
2020/01/01,06:10,0.694,1.000,0.676,1.266,0.880,0.400,0.706,0.671,�k��,3.4,��
2020/01/01,06:20,0.694,1.000,0.675,1.267,0.880,0.402,0.706,0.672,�k��,3.6,��
2020/01/01,06:30,0.692,1.000,0.674,1.267,0.879,0.400,0.706,0.673,�k��,3.0,��
2020/01/01,06:40,0.693,1.001,0.676,1.267,0.881,0.400,0.707,0.673,���k��,3.1,��
2020/01/01,06:50,0.693,1.001,0.675,1.266,0.880,0.401,0.705,0.673,�k��,4.5,��
2020/01/01,07:00,0.693,0.999,0.676,1.265,0.882,0.401,0.705,0.672,�k��,4.4,��
2020/01/01,07:10,0.695,0.999,0.676,1.266,0.881,0.399,0.708,0.671,�k��,4.5,��
2020/01/01,07:20,0.692,1.000,0.678,1.266,0.881,0.400,0.706,0.671,�k�k��,4.9,��
2020/01/01,07:30,0.694,1.000,0.675,1.265,0.881,0.401,0.705,0.673,�k�k��,4.5,��
2020/01/01,07:40,0.695,1.002,0.675,1.265,0.882,0.401,0.707,0.673,�k�k��,3.4,��
2020/01/01,07:50,0.695,1.001,0.677,1.264,0.880,0.401,0.707,0.672,�k�k��,3.1,��
2020/01/01,08:00,0.694,1.001,0.677,1.266,0.881,0.401,0.705,0.671,�k�k��,3.5,��
2020/01/01,08:10,0.695,1.001,0.675,1.268,0.882,0.401,0.706,0.672,�k�k��,3.6,��
2020/01/01,08:20,0.695,1.000,0.676,1.267,0.881,0.402,0.707,0.674,�k�k��,2.4,��
2020/01/01,08:30,0.696,1.002,0.677,1.267,0.880,0.403,0.706,0.672,�k�k��,2.3,��
2020/01/01,08:40,0.694,1.001,0.676,1.267,0.881,0.401,0.708,0.673,�k�k��,1.9,��
2020/01/01,08:50,0.696,1.001,0.676,1.267,0.881,0.403,0.707,0.672,�k�k��,1.4,��
2020/01/01,09:00,0.696,1.004,0.676,1.267,0.880,0.400,0.708,0.673,�k��,1.7,��
2020/01/01,09:10,0.696,1.003,0.676,1.269,0.881,0.400,0.707,0.673,�k,2.1,��
2020/01/01,09:20,0.697,1.002,0.678,1.266,0.882,0.399,0.708,0.673,�k�k��,1.8,��
2020/01/01,09:30,0.698,1.006,0.678,1.267,0.883,0.401,0.708,0.673,�k��,1.7,��
2020/01/01,09:40,0.697,1.005,0.678,1.266,0.880,0.402,0.709,0.674,�k�k��,1.8,��
2020/01/01,09:50,0.698,1.005,0.677,1.265,0.884,0.401,0.708,0.672,�k��,1.3,��
2020/01/01,10:00,0.699,1.005,0.677,1.268,0.883,0.403,0.708,0.672,�k��,1.7,��
2020/01/01,10:10,0.699,1.003,0.677,1.267,0.884,0.402,0.706,0.672,���k��,1.2,��
2020/01/01,10:20,0.698,1.005,0.678,1.266,0.885,0.402,0.706,0.673,-,CALM,��
2020/01/01,10:30,0.699,1.004,0.677,1.266,0.883,0.403,0.707,0.674,��쐼,3.3,��
2020/01/01,10:40,0.699,1.004,0.675,1.266,0.885,0.403,0.704,0.673,���쐼,6.7,��
2020/01/01,10:50,0.698,1.004,0.679,1.266,0.885,0.403,0.705,0.673,���쐼,5.3,��
2020/01/01,11:00,0.701,1.006,0.678,1.268,0.885,0.402,0.706,0.674,�쐼,5.6,��
2020/01/01,11:10,0.699,1.003,0.677,1.268,0.884,0.402,0.707,0.672,���쐼,5.5,��
2020/01/01,11:20,0.701,1.006,0.677,1.268,0.886,0.402,0.706,0.672,���쐼,6.9,��
2020/01/01,11:30,0.700,1.005,0.679,1.268,0.887,0.403,0.706,0.675,��,7.5,��
2020/01/01,11:40,0.698,1.003,0.678,1.266,0.887,0.403,0.707,0.672,���쐼,7.2,��
2020/01/01,11:50,0.698,1.007,0.678,1.269,0.887,0.403,0.708,0.674,���쐼,6.4,��
2020/01/01,12:00,0.700,1.007,0.679,1.267,0.886,0.404,0.708,0.674,�쐼,9.4,��
2020/01/01,12:10,0.701,1.007,0.679,1.270,0.887,0.404,0.710,0.675,���쐼,9.4,��
2020/01/01,12:20,0.701,1.009,0.678,1.270,0.888,0.404,0.710,0.675,�쐼,8.6,��
2020/01/01,12:30,0.702,1.006,0.681,1.270,0.888,0.405,0.710,0.674,���쐼,8.8,��
2020/01/01,12:40,0.700,1.008,0.681,1.271,0.887,0.404,0.710,0.674,�쐼,6.7,��
2020/01/01,12:50,0.702,1.007,0.681,1.273,0.887,0.406,0.711,0.675,�쐼,8.2,��
2020/01/01,13:00,0.703,1.009,0.681,1.270,0.888,0.405,0.711,0.676,�쐼,7.7,��
2020/01/01,13:10,0.702,1.010,0.682,1.270,0.889,0.408,0.711,0.674,�쐼,6.9,��
2020/01/01,13:20,0.703,1.007,0.680,1.272,0.891,0.406,0.711,0.673,�쐼,7.8,��
2020/01/01,13:30,0.702,1.007,0.682,1.270,0.889,0.407,0.713,0.673,���쐼,8.9,��
2020/01/01,13:40,0.702,1.009,0.680,1.269,0.889,0.407,0.712,0.672,���쐼,5.6,��
2020/01/01,13:50,0.703,1.008,0.681,1.272,0.890,0.408,0.713,0.673,�쐼,4.5,��
2020/01/01,14:00,0.702,1.007,0.682,1.272,0.890,0.407,0.711,0.673,���쐼,5.2,��
2020/01/01,14:10,0.705,1.008,0.683,1.272,0.890,0.407,0.712,0.673,��쐼,4.5,��
2020/01/01,14:20,0.704,1.005,0.680,1.274,0.889,0.407,0.710,0.673,�쐼,3.4,��
2020/01/01,14:30,0.705,1.006,0.682,1.272,0.890,0.408,0.713,0.675,��쐼,3.1,��
2020/01/01,14:40,0.704,1.006,0.681,1.274,0.892,0.408,0.712,0.677,�쐼,2.2,��
2020/01/01,14:50,0.703,1.009,0.682,1.272,0.891,0.408,0.712,0.675,���쐼,5.3,��
2020/01/01,15:00,0.704,1.011,0.683,1.272,0.892,0.407,0.712,0.674,�쐼,2.9,��
2020/01/01,15:10,0.704,1.007,0.681,1.273,0.890,0.407,0.710,0.675,���쐼,2.5,��
2020/01/01,15:20,0.704,1.011,0.683,1.273,0.890,0.407,0.713,0.675,��,5.0,��
2020/01/01,15:30,0.704,1.010,0.681,1.274,0.889,0.408,0.711,0.675,���k��,5.8,��
2020/01/01,15:40,0.705,1.010,0.682,1.273,0.889,0.407,0.710,0.674,��,5.8,��
2020/01/01,15:50,0.705,1.010,0.683,1.271,0.891,0.408,0.708,0.674,���k��,5.0,��
2020/01/01,16:00,0.705,1.010,0.682,1.275,0.890,0.407,0.709,0.675,��,8.2,��
2020/01/01,16:10,0.704,1.008,0.680,1.276,0.894,0.406,0.709,0.675,���쐼,5.2,��
2020/01/01,16:20,0.704,1.009,0.682,1.273,0.893,0.406,0.710,0.676,��,6.7,��
2020/01/01,16:30,0.702,1.011,0.683,1.273,0.890,0.406,0.708,0.676,��,7.1,��
2020/01/01,16:40,0.702,1.009,0.683,1.274,0.890,0.408,0.710,0.675,��,6.6,��
2020/01/01,16:50,0.703,1.009,0.682,1.270,0.889,0.406,0.710,0.674,���쐼,6.3,��
2020/01/01,17:00,0.702,1.013,0.681,1.272,0.891,0.407,0.712,0.675,���쐼,5.3,��
2020/01/01,17:10,0.701,1.009,0.681,1.273,0.891,0.406,0.710,0.673,���쐼,5.5,��
2020/01/01,17:20,0.702,1.009,0.682,1.274,0.890,0.405,0.711,0.675,���쐼,5.5,��
2020/01/01,17:30,0.703,1.010,0.681,1.274,0.891,0.407,0.711,0.674,���쐼,5.8,��
2020/01/01,17:40,0.702,1.008,0.680,1.270,0.888,0.407,0.710,0.674,��,6.3,��
2020/01/01,17:50,0.702,1.010,0.681,1.272,0.888,0.406,0.709,0.672,��,5.8,��
2020/01/01,18:00,0.700,1.009,0.680,1.271,0.889,0.404,0.708,0.675,���k��,5.5,��
2020/01/01,18:10,0.701,1.011,0.682,1.271,0.891,0.406,0.709,0.675,�k��,4.7,��
2020/01/01,18:20,0.702,1.007,0.680,1.275,0.890,0.406,0.710,0.674,�k��,3.8,��
2020/01/01,18:30,0.701,1.008,0.681,1.274,0.889,0.405,0.711,0.674,���k��,4.1,��
2020/01/01,18:40,0.701,1.010,0.681,1.272,0.890,0.406,0.710,0.675,���k��,4.7,��
2020/01/01,18:50,0.701,1.010,0.681,1.274,0.889,0.406,0.712,0.675,���k��,4.0,��
2020/01/01,19:00,0.702,1.009,0.681,1.274,0.889,0.406,0.712,0.674,���k��,3.8,��
2020/01/01,19:10,0.700,1.009,0.680,1.273,0.890,0.405,0.709,0.674,���k��,4.1,��
2020/01/01,19:20,0.701,1.008,0.680,1.273,0.890,0.404,0.709,0.674,��,3.2,��
2020/01/01,19:30,0.703,1.009,0.682,1.272,0.888,0.405,0.709,0.676,��,2.8,��
2020/01/01,19:40,0.702,1.007,0.680,1.272,0.888,0.406,0.710,0.675,��,2.1,��
2020/01/01,19:50,0.702,1.011,0.681,1.272,0.890,0.406,0.709,0.673,��,1.2,��
2020/01/01,20:00,0.700,1.009,0.680,1.273,0.891,0.404,0.710,0.674,���쐼,1.4,��
2020/01/01,20:10,0.701,1.010,0.679,1.272,0.891,0.405,0.710,0.676,��,2.7,��
2020/01/01,20:20,0.701,1.010,0.681,1.274,0.889,0.405,0.709,0.674,���k��,3.5,��
2020/01/01,20:30,0.701,1.009,0.682,1.271,0.890,0.407,0.710,0.674,���k��,3.2,�L
2020/01/01,20:40,0.702,1.010,0.680,1.270,0.891,0.404,0.712,0.675,�k��,2.2,��
2020/01/01,20:50,0.701,1.009,0.681,1.270,0.891,0.404,0.711,0.675,���k��,1.9,��
2020/01/01,21:00,0.702,1.011,0.681,1.274,0.890,0.403,0.711,0.673,���k��,2.4,��
2020/01/01,21:10,0.700,1.010,0.683,1.273,0.890,0.405,0.711,0.673,���k��,1.6,��
2020/01/01,21:20,0.702,1.010,0.682,1.271,0.891,0.405,0.709,0.674,�k��,2.6,��
2020/01/01,21:30,0.701,1.009,0.681,1.275,0.891,0.405,0.712,0.674,���k��,2.1,��
2020/01/01,21:40,0.702,1.011,0.681,1.272,0.891,0.404,0.711,0.675,�k��,1.2,��
2020/01/01,21:50,0.701,1.008,0.680,1.273,0.890,0.404,0.710,0.675,���k��,2.7,��
2020/01/01,22:00,0.703,1.011,0.682,1.274,0.888,0.404,0.711,0.675,���k��,2.8,��
2020/01/01,22:10,0.702,1.009,0.680,1.273,0.891,0.404,0.708,0.675,���k��,2.0,��
2020/01/01,22:20,0.702,1.011,0.682,1.271,0.890,0.405,0.711,0.675,���k��,2.3,��
2020/01/01,22:30,0.701,1.010,0.680,1.275,0.891,0.404,0.709,0.674,�k��,2.5,��
2020/01/01,22:40,0.702,1.007,0.680,1.273,0.888,0.403,0.708,0.674,�k��,2.1,��
2020/01/01,22:50,0.701,1.009,0.681,1.273,0.889,0.405,0.710,0.674,�k��,1.6,��
2020/01/01,23:00,0.700,1.009,0.680,1.271,0.888,0.405,0.710,0.675,�k�k��,1.7,��
2020/01/01,23:10,0.703,1.010,0.681,1.274,0.890,0.404,0.709,0.675,�k��,2.5,��
2020/01/01,23:20,0.700,1.009,0.680,1.273,0.890,0.405,0.710,0.674,�k��,3.0,��
2020/01/01,23:30,0.701,1.011,0.681,1.272,0.889,0.404,0.710,0.674,�k��,3.2,��
2020/01/01,23:40,0.701,1.013,0.680,1.274,0.888,0.404,0.709,0.672,��,2.4,��
2020/01/01,23:50,0.704,1.008,0.682,1.273,0.890,0.403,0.709,0.674,���k��,1.8,��
